STARLINK-1763 (46364 NORAD) Tracking and Keplerian Element Data

This shows tracking and keplerian element data for the satellite.

Feedback or suggestion? Click here.




ElementValue
Catalog46364
NameSTARLINK-1763
Epoch Orbit178
Epoch Day268.91668981
Epoch Year2020
RAAN323.7629
Inclination53.001
Eccentricity0.0001503
Argument of Perigee70.2486
Mean Anonmoly139.711
Mean Motion15.62865103
Decay Rate-0.00085128
L11 46364U 20062AR 20268.91668981 -.00085128 00000-0 -92947-3 0 9999
L22 46364 53.0010 323.7629 0001503 70.2486 139.7110 15.62865103 1787

Live tracking and technical data element details for STARLINK-1763 (NORAD 46364). STARLINK-1763 can be tracked NOW for your location showing map with azimuth and elevation plus other details from your city location.

Track the satellite on the map from your city or location and see movement details for azimuth, elevation, latitude, longitude, range, height, and movement on the map or in text.







IsCatalogInMostPopularTable: catalog: 46364, numindb: 4
Update: records affected: 1



GetName: 46364 STARLINK-1763

Hit Count: updated at: Mon, 28 Sep 2020 14:06:42 GMT